Zurück zum Katalog

COSMOS 1818 COOLANT

LostLEO
NORAD 34177·DEBRIS·🇷🇺 Russia

Gestartet Feb 1, 1987 von Baikonur Cosmodrome

Loading…

Nächste Überflüge (nächste 24 Stunden)

TLE

VeraltetSource: Space-Track

Epoche: May 29, 2014, 03:01 UTC

1 34177U 87011H   14149.12619162 +.00001209 +00000-0 +47948-3 0  9993
2 34177 065.0055 332.5521 0015337 233.9900 122.5452 14.32730676297100

Verfolge COSMOS 1818 COOLANT in Echtzeit mit AllMySat

Download on the App Store